Location: Kershaw
(34.5481°N, 80.5823°W)
Time: 03:58:08
(UTC+00:00)

Explorer 7 - Pass Details

Date: 05 October 2022
Orbit: 481 x 665 km, 50.3° (Epoch: 30 November)

Event Time Altitude Azimuth Distance (km) Brightness Sun altitude
Rises 16:21:28 0° 277° (W) 2,997 10.4 48.9°
Reaches altitude 10° 16:24:30 10° 296° (WNW) 2,087 9.6 49.1°
Maximum altitude 16:27:49 18° 339° (NNW) 1,605 9.0 49.3°
Drops below altitude 10° 16:31:08 10° 23° (NNE) 2,065 9.5 49.5°
Sets 16:34:07 0° 42° (NE) 2,954 10.3 49.6°
